EN

Hourly Weather Palmas de Monte Alto

Today, 7 March, Sunday

Time Temperature Precipitation Wind Pressure Humidity
00:00 +23°C° 0 mm 0 mps 709 mmHg 66%
01:00 +23°C° 0 mm 0 mps 709 mmHg 67%
02:00 +23°C° 0 mm 0 mps 709 mmHg 68%
03:00 +23°C° 0 mm 0 mps 708 mmHg 68%
04:00 +22°C° 0 mm 0 mps 709 mmHg 69%
05:00 +22°C° 0 mm 0 mps 709 mmHg 70%
06:00 +22°C° 0 mm 0 mps 709 mmHg 71%
07:00 +24°C° 0 mm 0 mps 710 mmHg 64%
08:00 +29°C° 0 mm 1 mps 711 mmHg 57%
09:00 +32°C° 0 mm 1 mps 712 mmHg 50%
10:00 +34°C° 0 mm 1 mps 711 mmHg 46%
11:00 +35°C° 0 mm 1 mps 711 mmHg 41%
12:00 +37°C° 0 mm 1 mps 711 mmHg 36%
13:00 +36°C° 0 mm 1 mps 710 mmHg 38%
14:00 +36°C° 0 mm 2 mps 709 mmHg 40%
15:00 +35°C° 0 mm 2 mps 709 mmHg 42%
16:00 +32°C° 0.2 mm 2 mps 708 mmHg 50%
17:00 +30°C° 0.2 mm 2 mps 708 mmHg 58%
18:00 +28°C° 0.2 mm 3 mps 707 mmHg 66%
19:00 +27°C° 0.1 mm 2 mps 708 mmHg 70%
20:00 +26°C° 0.1 mm 2 mps 708 mmHg 74%
21:00 +25°C° 0.1 mm 2 mps 709 mmHg 78%
22:00 +25°C° 0 mm 2 mps 709 mmHg 79%
23:00 +24°C° 0 mm 1 mps 709 mmHg 81%

Tomorrow, 8 March, Monday

Time Temperature Precipitation Wind Pressure Humidity
00:00 +24°C° 0 mm 1 mps 709 mmHg 82%
01:00 +23°C° 0.5 mm 1 mps 709 mmHg 85%
02:00 +23°C° 0.5 mm 1 mps 708 mmHg 88%
03:00 +20°C° 0.5 mm 0 mps 708 mmHg 91%
04:00 +22°C° 0.2 mm 1 mps 708 mmHg 90%
05:00 +22°C° 0.2 mm 1 mps 708 mmHg 90%
06:00 +22°C° 0.2 mm 1 mps 709 mmHg 90%
07:00 +25°C° 0 mm 1 mps 709 mmHg 80%
08:00 +27°C° 0 mm 1 mps 710 mmHg 69%
09:00 +30°C° 0 mm 1 mps 711 mmHg 59%
10:00 +32°C° 0 mm 1 mps 710 mmHg 51%
11:00 +35°C° 0 mm 1 mps 710 mmHg 42%
12:00 +37°C° 0 mm 1 mps 710 mmHg 34%
13:00 +36°C° 0 mm 1 mps 709 mmHg 35%
14:00 +36°C° 0 mm 1 mps 708 mmHg 35%
15:00 +35°C° 0 mm 1 mps 708 mmHg 36%
16:00 +33°C° 0 mm 1 mps 707 mmHg 41%
17:00 +32°C° 0 mm 1 mps 707 mmHg 46%
18:00 +30°C° 0 mm 1 mps 707 mmHg 51%
19:00 +28°C° 0.4 mm 1 mps 707 mmHg 61%
20:00 +26°C° 0.4 mm 2 mps 708 mmHg 71%
21:00 +25°C° 0.4 mm 2 mps 708 mmHg 80%
22:00 +24°C° 0.6 mm 2 mps 708 mmHg 83%
23:00 +24°C° 0.6 mm 2 mps 708 mmHg 87%

Day after tomorrow, 9 March, Tuesday

Time Temperature Precipitation Wind Pressure Humidity
00:00 +24°C° 0.6 mm 2 mps 708 mmHg 90%
01:00 +23°C° 0.4 mm 2 mps 708 mmHg 91%
02:00 +23°C° 0.4 mm 1 mps 708 mmHg 92%
03:00 +23°C° 0.4 mm 1 mps 708 mmHg 93%
04:00 +23°C° 0.9 mm 1 mps 708 mmHg 93%
05:00 +23°C° 0.9 mm 1 mps 708 mmHg 94%
06:00 +22°C° 0.9 mm 1 mps 708 mmHg 94%
07:00 +23°C° 0.5 mm 1 mps 708 mmHg 90%
08:00 +25°C° 0.5 mm 1 mps 709 mmHg 86%
09:00 +26°C° 0.5 mm 1 mps 709 mmHg 82%
10:00 +29°C° 0.3 mm 1 mps 709 mmHg 70%
11:00 +32°C° 0.3 mm 1 mps 709 mmHg 57%
12:00 +33°C° 0.3 mm 0 mps 709 mmHg 45%
13:00 +34°C° 0 mm 1 mps 709 mmHg 44%
14:00 +34°C° 0 mm 1 mps 708 mmHg 42%
15:00 +34°C° 0 mm 1 mps 707 mmHg 41%
16:00 +32°C° 0 mm 1 mps 707 mmHg 47%
17:00 +31°C° 0 mm 1 mps 707 mmHg 53%
18:00 +29°C° 0 mm 1 mps 706 mmHg 60%
19:00 +28°C° 0.5 mm 1 mps 707 mmHg 68%
20:00 +26°C° 0.5 mm 1 mps 707 mmHg 77%
21:00 +24°C° 0.5 mm 1 mps 707 mmHg 85%
22:00 +24°C° 0.8 mm 1 mps 707 mmHg 88%
23:00 +24°C° 0.8 mm 1 mps 708 mmHg 90%

10 March, Wednesday

Time Temperature Precipitation Wind Pressure Humidity
00:00 +23°C° 0.8 mm 2 mps 708 mmHg 92%
01:00 +23°C° 1.4 mm 1 mps 708 mmHg 93%
02:00 +23°C° 1.4 mm 1 mps 707 mmHg 93%
03:00 +23°C° 1.4 mm 1 mps 707 mmHg 94%
04:00 +23°C° 0.9 mm 1 mps 707 mmHg 93%
05:00 +23°C° 0.9 mm 1 mps 708 mmHg 93%
06:00 +23°C° 0.9 mm 2 mps 708 mmHg 93%
07:00 +23°C° 0.6 mm 2 mps 709 mmHg 92%
08:00 +23°C° 0.6 mm 2 mps 709 mmHg 92%
09:00 +23°C° 0.6 mm 2 mps 710 mmHg 91%
10:00 +25°C° 0.2 mm 2 mps 709 mmHg 85%
11:00 +26°C° 0.2 mm 2 mps 709 mmHg 79%
12:00 +27°C° 0.2 mm 2 mps 709 mmHg 74%
13:00 +27°C° 0.6 mm 2 mps 709 mmHg 73%
14:00 +28°C° 0.6 mm 2 mps 708 mmHg 72%
15:00 +28°C° 0.6 mm 1 mps 708 mmHg 70%
16:00 +26°C° 0.2 mm 1 mps 708 mmHg 77%
17:00 +25°C° 0.2 mm 1 mps 708 mmHg 83%
18:00 +24°C° 0.2 mm 1 mps 708 mmHg 89%
19:00 +23°C° 0.1 mm 1 mps 708 mmHg 89%
20:00 +23°C° 0.1 mm 1 mps 708 mmHg 90%
21:00 +23°C° 0.1 mm 1 mps 709 mmHg 90%
22:00 +23°C° 0 mm 1 mps 709 mmHg 89%
23:00 +23°C° 0 mm 1 mps 709 mmHg 89%

11 March, Thursday

Time Temperature Precipitation Wind Pressure Humidity
00:00 +23°C° 0 mm 1 mps 709 mmHg 88%
01:00 +20°C° 0.3 mm 0 mps 709 mmHg 89%
02:00 +20°C° 0.3 mm 0 mps 708 mmHg 90%
03:00 +20°C° 0.3 mm 0 mps 708 mmHg 91%
04:00 +20°C° 0.5 mm 0 mps 708 mmHg 91%
05:00 +20°C° 0.5 mm 0 mps 709 mmHg 92%
06:00 +22°C° 0.5 mm 1 mps 709 mmHg 92%
07:00 +24°C° 0.1 mm 1 mps 710 mmHg 85%
08:00 +25°C° 0.1 mm 1 mps 711 mmHg 79%
09:00 +25°C° 0.1 mm 0 mps 711 mmHg 72%
10:00 +29°C° 0.5 mm 1 mps 711 mmHg 67%
11:00 +30°C° 0.5 mm 1 mps 711 mmHg 63%
12:00 +31°C° 0.5 mm 1 mps 710 mmHg 58%
13:00 +32°C° 0.2 mm 1 mps 710 mmHg 55%
14:00 +32°C° 0.2 mm 1 mps 709 mmHg 53%
15:00 +31°C° 0.2 mm 0 mps 708 mmHg 50%
16:00 +29°C° 0.1 mm 0 mps 708 mmHg 56%
17:00 +29°C° 0.1 mm 1 mps 708 mmHg 62%
18:00 +27°C° 0.1 mm 1 mps 708 mmHg 69%
19:00 +27°C° 0.1 mm 1 mps 708 mmHg 72%
20:00 +24°C° 0.1 mm 0 mps 709 mmHg 75%
21:00 +23°C° 0.1 mm 0 mps 709 mmHg 79%
22:00 +24°C° 0.3 mm 1 mps 709 mmHg 82%
23:00 +24°C° 0.3 mm 1 mps 709 mmHg 84%

12 March, Friday

Time Temperature Precipitation Wind Pressure Humidity
00:00 +23°C° 0.3 mm 1 mps 709 mmHg 87%
01:00 +23°C° 0.9 mm 1 mps 709 mmHg 89%
02:00 +23°C° 0.9 mm 1 mps 708 mmHg 90%
03:00 +22°C° 0.9 mm 1 mps 708 mmHg 92%
04:00 +22°C° 1.1 mm 1 mps 708 mmHg 93%
05:00 +22°C° 1.1 mm 1 mps 709 mmHg 94%
06:00 +22°C° 1.1 mm 1 mps 709 mmHg 95%
07:00 +23°C° 0.5 mm 1 mps 710 mmHg 90%
08:00 +25°C° 0.5 mm 1 mps 710 mmHg 86%
09:00 +26°C° 0.5 mm 1 mps 711 mmHg 81%
10:00 +27°C° 1.6 mm 1 mps 710 mmHg 78%
11:00 +28°C° 1.6 mm 1 mps 710 mmHg 74%
12:00 +30°C° 1.6 mm 1 mps 710 mmHg 71%
13:00 +30°C° 1 mm 1 mps 709 mmHg 69%
14:00 +30°C° 1 mm 1 mps 708 mmHg 68%
15:00 +30°C° 1 mm 1 mps 708 mmHg 66%
16:00 +29°C° 0.1 mm 1 mps 708 mmHg 70%
17:00 +28°C° 0.1 mm 1 mps 707 mmHg 74%
18:00 +25°C° 0.1 mm 0 mps 707 mmHg 78%
19:00 +26°C° 0.3 mm 1 mps 708 mmHg 80%
20:00 +25°C° 0.3 mm 1 mps 708 mmHg 82%
21:00 +24°C° 0.3 mm 1 mps 708 mmHg 84%
22:00 +24°C° 0.1 mm 1 mps 709 mmHg 85%
23:00 +24°C° 0.1 mm 1 mps 709 mmHg 86%
Show more

We Need Your Consent

Meteoprog and our Service Providers may store and access personal data such as cookies, device identifiers or other similar technologies on your device and process such data to personalise content and ads, as well as provide social media features and to analyse the traffic.

  • Store and/or access information on your device

    Cookies, device identifiers or other information can be stored or accessed on your device for the purposes indicated above.

  • Personalised ads and content, ad and content measurement, audience insights, and products development

    Ads and content can be personalised based on a profile. More data can be added to better personalise ads and content. Ad and content performance can be measured. Insights about the audience who saw the ads and content can be derived. Such data can be used to develop or improve user’s experience, systems and software.

By clicking ‘I Agree’ you will allow the use of indicated cookies, device identifiers, web beacons or other similar technologies. Your settings can be changed in the browser on your device.

For certain purposes, legitimate interests may be relied on, rather than consent. You can read more about this in our Privacy and Cookie Policy.